{"data":{"norad_id":49011,"epoch":"2026-09-19T01:39:18.377280Z","epoch_age_seconds":145654,"freshness":"FRESH","line1":"1 49011U 21063A   26262.06896270  .00000104  00000+0  00000+0 0  9996","line2":"2 49011   1.8289  79.7356 0003441 138.5223 181.3927  1.00274323 19012","mean_motion":1.00274323,"eccentricity":0.0003441,"inclination_deg":1.8289,"raan_deg":79.7356,"arg_perigee_deg":138.5223,"mean_anomaly_deg":181.3927,"bstar":0,"rev_number":1901,"period_min":1436.0605556021,"perigee_km":35771.374843217,"apogee_km":35800.392122114,"semimajor_km":42164.020482666,"source":"CELESTRAK","updated_at":"2026-09-20T09:00:35.298411Z"}}